Weather History for KHOP - April, 2012

Change the Weather History Date:

Sunday, April 15, 2012

  Actual Average Record
Temperature  
Mean Temperature 70 °F -  
Max Temperature 79 °F 68 °F 86 °F (2002)
Min Temperature 62 °F 47 °F 29 °F (2008)
Cooling Degree Days 6    
Growing Degree Days 20 (Base 50)    
Moisture  
Dew Point 58 °F    
Average Humidity 64    
Maximum Humidity 81    
Minimum Humidity 47    
Precipitation  
Precipitation 0.00 in - - ()
Sea Level Pressure  
Sea Level Pressure 29.96 in    
Wind  
Wind Speed 12 mph (South)    
Max Wind Speed 21 mph    
Max Gust Speed 33 mph    
Visibility 10 miles    
Events      
Averages and records for this station are not official NWS values.
T = Trace of Precipitation, MM = Missing Value Source: NWS Daily Summary

Daily Weather History Graph

Daily Weather History Graph

Search for Another Location

Airport or City:

Trip Planner

Search our weather history database for the weather conditions in past years. The results will help you decide how hot, cold, wet, or windy it might be!

Date:

Astronomy

Apr. 15, 2012 Rise Set
Actual Time 6:15 AM CDT 7:24 PM CDT
Civil Twilight 5:48 AM CDT 7:51 PM CDT
Nautical Twilight 5:17 AM CDT 8:23 PM CDT
Astronomical Twilight 4:44 AM CDT 8:56 PM CDT
Moon 3:04 AM CDT (4/15) 2:27 PM CDT (4/15)
Length of Visible Light 14h 02m
Length of Day
13h 09m
Waning Crescent, 27% of the Moon is Illuminated
Apr 15
Waning Crescent
Apr 21
New
Apr 29
First Quarter
May 5
Full
May 12
Last Quarter

Hourly Weather History & Observations

Time (CDT) Temp. Dew Point Humidity Pressure Visibility Wind Dir Wind Speed Gust Speed Precip Events Conditions
12:55 AM 67.1 °F 56.1 °F 68% 29.97 in 10.0 mi South 9.2 mph - N/A   Clear
1:55 AM 68.2 °F 56.1 °F 65% 29.95 in 10.0 mi South 15.0 mph - N/A   Clear
2:55 AM 67.6 °F 56.5 °F 67% 29.94 in 10.0 mi South 13.8 mph 20.7 mph N/A   Clear
3:55 AM 66.4 °F 57.2 °F 72% 29.94 in 10.0 mi South 10.4 mph - N/A   Clear
4:55 AM 63.7 °F 57.2 °F 79% 29.96 in 10.0 mi South 6.9 mph - N/A   Clear
5:55 AM 62.8 °F 56.8 °F 81% 29.98 in 10.0 mi South 5.8 mph - N/A   Clear
6:55 AM 63.0 °F 56.8 °F 80% 30.01 in 10.0 mi South 5.8 mph - N/A   Clear
7:55 AM 66.4 °F 56.8 °F 71% 30.03 in 10.0 mi South 9.2 mph - N/A   Clear
8:55 AM 69.3 °F 57.0 °F 65% 30.03 in 10.0 mi SSW 13.8 mph - N/A   Clear
9:55 AM 68.9 °F 57.7 °F 68% 30.04 in 10.0 mi SSW 20.7 mph 33.4 mph N/A   Mostly Cloudy
10:55 AM 69.6 °F 57.4 °F 65% 30.07 in 10.0 mi SSW 16.1 mph 25.3 mph N/A   Overcast
11:55 AM 72.9 °F 59.4 °F 62% 30.05 in 10.0 mi SSW 15.0 mph - N/A   Mostly Cloudy
12:55 PM 75.6 °F 59.4 °F 57% 30.02 in 10.0 mi SSW 16.1 mph 27.6 mph N/A   Scattered Clouds
1:55 PM 76.6 °F 59.4 °F 55% 30.01 in 10.0 mi SSW 16.1 mph 23.0 mph N/A   Scattered Clouds
2:55 PM 79.0 °F 59.0 °F 50% 29.97 in 10.0 mi South 19.6 mph 24.2 mph N/A   Partly Cloudy
3:55 PM 79.7 °F 57.7 °F 47% 29.94 in 10.0 mi South 20.7 mph 29.9 mph N/A   Clear
4:55 PM 79.5 °F 58.3 °F 48% 29.92 in 10.0 mi South 19.6 mph 28.8 mph N/A   Clear
5:55 PM 78.8 °F 59.0 °F 51% 29.91 in 10.0 mi South 15.0 mph - N/A   Clear
6:55 PM 77.0 °F 59.7 °F 55% 29.91 in 10.0 mi South 10.4 mph - N/A   Clear
7:55 PM 74.7 °F 60.1 °F 60% 29.89 in 10.0 mi SSE 12.7 mph 19.6 mph N/A   Clear
8:55 PM 73.6 °F 60.4 °F 63% 29.91 in 10.0 mi SSE 12.7 mph - N/A   Clear
9:55 PM 72.3 °F 60.6 °F 67% 29.90 in 10.0 mi SSE 10.4 mph - N/A   Clear
10:55 PM 71.6 °F 61.0 °F 69% 29.89 in 10.0 mi SSE 9.2 mph - N/A   Clear
11:55 PM 71.1 °F 61.3 °F 71% 29.87 in 10.0 mi SSE 11.5 mph - N/A   Clear